GW7375 Weather Reports


time (UTC)temp
C
wind
direction
speed
KPH
gust
KPH
rain 1hr
cm
rain 24hr
cm
rain mn
cm
humidity
%
barometer
mb
20260906125542 18 28 0.0 6.4 0.00 0.00 0.00 92 1020.2
20260906125041 18 53 3.2 6.4 0.00 0.00 0.00 92 1020.2
20260906124559 18 82 1.6 8.0 0.00 0.00 0.00 92 1020.2
20260906124042 18 0 1.6 8.0 0.00 0.00 0.00 92 1020.1
20260906123541 18 67 0.0 6.4 0.00 0.00 0.00 92 1020.1
20260906123053 18 95 1.6 6.4 0.00 0.00 0.00 92 1019.9
20260906122545 18 0 1.6 6.4 0.00 0.00 0.00 92 1019.8
20260906122043 18 88 1.6 6.4 0.00 0.00 0.00 92 1019.9
20260906121556 18 59 1.6 6.4 0.00 0.00 0.00 92 1019.9
20260906121043 18 65 1.6 6.4 0.00 0.00 0.00 92 1019.8
20260906120541 18 65 1.6 4.8 0.00 0.00 0.00 92 1019.5
20260906120113 18 72 1.6 4.8 0.00 0.00 0.00 92 1019.3
20260906115542 18 80 1.6 4.8 0.00 0.00 0.00 92 1019.3
20260906115041 18 70 0.0 3.2 0.00 0.00 0.00 92 1019.1
20260906114553 18 0 0.0 12.9 0.00 0.00 0.00 92 1019.0
20260906114041 18 0 3.2 12.9 0.00 0.00 0.00 92 1018.9
20260906113542 18 86 3.2 6.4 0.00 0.00 0.00 92 1018.8
20260906113102 18 0 0.0 6.4 0.00 0.00 0.00 92 1018.8
20260906112542 18 0 0.0 6.4 0.00 0.00 0.00 92 1018.8
20260906112042 18 0 1.6 6.4 0.00 0.00 0.00 92 1018.7
20260906111605 18 69 0.0 6.4 0.00 0.00 0.00 92 1018.7
20260906111042 18 0 0.0 6.4 0.00 0.00 0.00 92 1018.7
20260906110543 18 0 0.0 6.4 0.00 0.00 0.00 92 1018.8
20260906110059 18 80 3.2 9.7 0.00 0.00 0.00 92 1018.8
20260906105542 18 0 0.0 11.3 0.00 0.00 0.00 92 1018.8
20260906105041 18 89 3.2 11.3 0.00 0.00 0.00 92 1018.8
20260906104556 18 59 3.2 9.7 0.00 0.00 0.00 92 1018.8
20260906104042 18 0 3.2 9.7 0.00 0.00 0.00 92 1018.7
20260906103545 18 52 1.6 11.3 0.00 0.00 0.00 92 1018.7
20260906103052 18 97 4.8 11.3 0.00 0.00 0.00 92 1018.6
20260906102542 18 62 1.6 4.8 0.00 0.00 0.00 91 1018.7
20260906102046 18 57 1.6 6.4 0.00 0.00 0.00 91 1018.6
20260906101550 18 69 3.2 6.4 0.00 0.00 0.00 91 1018.5
20260906101042 18 79 1.6 4.8 0.00 0.00 0.00 91 1018.4
20260906100543 19 0 0.0 3.2 0.00 0.00 0.00 91 1018.4
20260906100059 19 207 0.0 6.4 0.00 0.00 0.00 91 1018.2
20260906095542 19 0 0.0 6.4 0.00 0.00 0.00 91 1018.1
20260906095042 19 82 3.2 6.4 0.00 0.00 0.00 91 1018.1
20260906094554 19 0 1.6 8.0 0.00 0.00 0.00 91 1018.1
20260906094042 19 77 1.6 8.0 0.00 0.00 0.00 91 1018.0
20260906093542 19 79 3.2 8.0 0.00 0.00 0.00 91 1017.9
20260906093054 19 57 3.2 8.0 0.00 0.00 0.00 91 1017.7
20260906092545 19 75 1.6 9.7 0.00 0.00 0.00 91 1017.7
20260906092042 19 71 4.8 12.9 0.00 0.00 0.00 91 1017.8
20260906091549 19 82 3.2 12.9 0.00 0.00 0.00 91 1017.8
20260906091045 19 92 4.8 12.9 0.00 0.00 0.00 91 1017.9
20260906090543 19 90 3.2 12.9 0.00 0.00 0.00 91 1017.9
20260906090056 19 63 3.2 11.3 0.00 0.00 0.00 91 1017.9
20260906085543 20 66 4.8 11.3 0.00 0.00 0.00 91 1018.0
20260906085044 20 69 1.6 8.0 0.00 0.00 0.00 91 1018.0
20260906084556 20 0 1.6 8.0 0.00 0.00 0.00 91 1018.0
20260906084043 20 52 3.2 9.7 0.00 0.00 0.00 91 1018.0
20260906083543 20 84 3.2 9.7 0.00 0.00 0.00 91 1018.0
20260906083102 20 98 1.6 6.4 0.00 0.00 0.00 91 1018.1
20260906082542 20 0 0.0 12.9 0.00 0.00 0.00 91 1018.2
20260906082045 20 22 3.2 12.9 0.00 0.00 0.00 91 1018.2
20260906081555 20 56 3.2 8.0 0.00 0.00 0.00 91 1018.3
20260906081042 20 32 1.6 6.4 0.00 0.00 0.00 91 1018.2
20260906080544 20 31 1.6 9.7 0.00 0.00 0.00 91 1018.0
20260906080057 20 56 1.6 9.7 0.00 0.00 0.00 91 1018.0
20260906075542 20 78 1.6 8.0 0.00 0.00 0.00 91 1018.1
20260906075042 20 74 3.2 9.7 0.00 0.00 0.00 91 1018.2
20260906074601 20 88 3.2 9.7 0.00 0.00 0.00 91 1018.3
20260906074044 20 73 0.0 4.8 0.00 0.00 0.00 91 1018.3
20260906073542 20 0 0.0 4.8 0.00 0.00 0.00 91 1018.4
20260906073052 20 0 0.0 3.2 0.00 0.00 0.00 91 1018.3
20260906072543 20 0 0.0 4.8 0.00 0.00 0.00 91 1018.3
20260906072042 20 0 0.0 4.8 0.00 0.00 0.00 91 1018.2
20260906071559 20 0 0.0 6.4 0.00 0.00 0.00 91 1018.2
20260906071043 20 80 0.0 8.0 0.00 0.00 0.00 91 1018.4
20260906070542 20 59 3.2 8.0 0.00 0.00 0.00 91 1018.5
20260906065542 20 82 1.6 6.4 0.00 0.00 0.00 91 1018.7
20260906065042 20 75 3.2 6.4 0.00 0.00 0.00 91 1018.7
20260906064548 20 67 0.0 4.8 0.00 0.00 0.00 91 1018.7
20260906064041 20 55 0.0 4.8 0.00 0.00 0.00 91 1018.7
20260906063542 20 0 1.6 4.8 0.00 0.00 0.00 91 1018.6
20260906063058 20 84 0.0 4.8 0.00 0.00 0.00 91 1018.6
20260906062540 20 84 0.0 4.8 0.00 0.00 0.00 91 1018.7
20260906062043 20 0 0.0 4.8 0.00 0.00 0.00 91 1018.8
20260906061558 20 0 1.6 4.8 0.00 0.00 0.00 91 1018.8
20260906061042 20 0 0.0 0.0 0.00 0.00 0.00 91 1018.7
20260906060542 20 0 0.0 0.0 0.00 0.00 0.00 91 1018.7
20260906060059 20 0 0.0 0.0 0.00 0.00 0.00 91 1018.6
20260906055542 20 0 0.0 0.0 0.00 0.00 0.00 91 1018.6
20260906055041 20 0 0.0 0.0 0.00 0.00 0.00 91 1018.6
20260906054559 20 0 0.0 0.0 0.00 0.00 0.00 91 1018.6
20260906054044 20 0 0.0 0.0 0.00 0.00 0.00 91 1018.5
20260906053541 20 0 0.0 0.0 0.00 0.00 0.00 91 1018.5
20260906053054 20 0 0.0 0.0 0.00 0.00 0.00 90 1018.5
20260906052543 20 0 0.0 0.0 0.00 0.00 0.00 90 1018.5
20260906052043 20 0 0.0 0.0 0.00 0.00 0.00 90 1018.4
20260906051600 20 0 0.0 0.0 0.00 0.00 0.00 90 1018.3
20260906051041 20 0 0.0 0.0 0.00 0.00 0.00 90 1018.3
20260906050542 20 0 0.0 1.6 0.00 0.00 0.00 90 1018.4
20260906050049 20 0 0.0 1.6 0.00 0.00 0.00 90 1018.3
20260906045545 21 85 0.0 1.6 0.00 0.00 0.00 90 1018.3
20260906045047 21 0 0.0 3.2 0.00 0.00 0.00 90 1018.3
20260906044553 21 0 0.0 3.2 0.00 0.00 0.00 89 1018.2
20260906044042 21 0 0.0 0.0 0.00 0.00 0.00 90 1018.2
20260906043542 21 0 0.0 1.6 0.00 0.00 0.00 90 1018.3
20260906043100 21 0 0.0 4.8 0.00 0.00 0.00 89 1018.3
20260906042541 21 0 0.0 4.8 0.00 0.00 0.00 89 1018.4
20260906042042 21 0 0.0 3.2 0.00 0.00 0.00 89 1018.5
20260906041605 21 0 0.0 1.6 0.00 0.00 0.00 89 1018.6
20260906041043 21 0 0.0 1.6 0.00 0.00 0.00 89 1018.6
20260906040542 21 0 0.0 3.2 0.00 0.00 0.00 89 1018.6
20260906040051 21 0 0.0 3.2 0.00 0.00 0.00 88 1018.6
20260906035542 21 44 0.0 3.2 0.00 0.00 0.00 88 1018.5
20260906035117 21 0 0.0 3.2 0.00 0.00 0.00 88 1018.4
20260906034039 22 42 1.6 8.0 0.00 0.00 0.00 88 1018.1
20260906033543 22 74 1.6 8.0 0.00 0.00 0.00 87 1018.0
20260906033054 22 59 1.6 8.0 0.00 0.00 0.00 87 1017.9
20260906032542 22 0 1.6 6.4 0.00 0.00 0.00 87 1017.7
20260906032043 22 59 3.2 6.4 0.00 0.00 0.00 87 1017.7
20260906031601 22 88 1.6 6.4 0.00 0.00 0.00 87 1017.6
20260906031043 22 82 3.2 6.4 0.00 0.00 0.00 87 1017.5
20260906030544 22 74 1.6 6.4 0.00 0.00 0.00 87 1017.5
20260906030108 22 0 0.0 4.8 0.00 0.00 0.00 86 1017.5
20260906025542 22 0 0.0 4.8 0.00 0.00 0.00 86 1017.4
20260906025042 22 0 0.0 8.0 0.00 0.00 0.00 86 1017.3
20260906024611 22 0 0.0 9.7 0.00 0.00 0.00 87 1017.2
20260906024043 22 0 1.6 9.7 0.00 0.00 0.00 87 1017.2
20260906023542 22 99 1.6 6.4 0.00 0.00 0.00 87 1017.2
20260906023103 22 74 1.6 6.4 0.00 0.00 0.00 87 1017.3
20260906022544 22 0 0.0 4.8 0.00 0.00 0.00 87 1017.3
20260906022043 22 0 0.0 9.7 0.00 0.00 0.00 87 1017.1
20260906021559 22 122 1.6 9.7 0.00 0.00 0.00 87 1017.0
20260906021042 22 163 0.0 4.8 0.00 0.00 0.00 87 1016.9
20260906020542 22 0 0.0 4.8 0.00 0.00 0.00 87 1016.8
20260906020149 22 80 0.0 3.2 0.00 0.00 0.00 87 1016.9
20260906015542 22 0 0.0 3.2 0.00 0.00 0.00 87 1016.9
20260906015041 22 0 0.0 1.6 0.00 0.00 0.00 87 1016.7
20260906014607 22 0 0.0 6.4 0.00 0.00 0.00 87 1016.6
20260906014042 22 0 0.0 6.4 0.00 0.00 0.00 87 1016.5
20260906013544 22 82 0.0 4.8 0.00 0.00 0.00 87 1016.4
20260906013103 22 0 0.0 0.0 0.00 0.00 0.00 87 1016.4
20260906012543 22 0 0.0 0.0 0.00 0.00 0.00 86 1016.3
20260906012042 22 0 0.0 0.0 0.00 0.00 0.00 86 1016.2
20260906011603 23 0 0.0 0.0 0.00 0.00 0.00 86 1016.1
20260906011042 23 0 0.0 0.0 0.00 0.00 0.00 85 1015.9
20260906010542 23 0 0.0 0.0 0.00 0.00 0.00 85 1015.8
20260906010119 23 0 0.0 0.0 0.00 0.00 0.00 84 1015.7
20260906005542 23 0 0.0 0.0 0.00 0.00 0.00 84 1015.7
20260906005042 23 0 0.0 0.0 0.00 0.00 0.00 83 1015.6
20260906004602 23 0 0.0 0.0 0.00 0.00 0.00 83 1015.6
20260906004042 23 0 0.0 0.0 0.00 0.00 0.00 83 1015.6
20260906003543 24 0 0.0 0.0 0.00 0.00 0.00 82 1015.7
20260906003118 24 0 0.0 0.0 0.00 0.00 0.00 82 1015.6
20260906002543 24 0 0.0 0.0 0.00 0.00 0.00 82 1015.6
20260906002044 24 0 0.0 0.0 0.00 0.00 0.00 81 1015.6
20260906001558 24 0 0.0 3.2 0.00 0.00 0.00 81 1015.5
20260906001040 24 0 0.0 4.8 0.00 0.00 0.00 81 1015.4
20260906000545 25 0 0.0 4.8 0.00 0.00 0.00 80 1015.4
20260906000103 25 62 1.6 3.2 0.00 0.00 0.00 79 1015.4
20260905235541 25 0 0.0 0.0 0.00 0.00 0.00 79 1015.5
20260905235042 25 0 0.0 1.6 0.00 0.00 0.00 79 1015.6
20260905234603 25 0 0.0 1.6 0.00 0.00 0.00 79 1015.6
20260905234046 25 69 0.0 1.6 0.00 0.00 0.00 78 1015.7
20260905233543 25 0 0.0 1.6 0.00 0.00 0.00 78 1015.7
20260905233102 25 0 0.0 4.8 0.00 0.00 0.00 79 1015.8
20260905232541 25 0 0.0 4.8 0.00 0.00 0.00 79 1015.6
20260905232042 25 51 0.0 6.4 0.00 0.00 0.00 78 1015.7
20260905231559 25 76 3.2 6.4 0.00 0.00 0.00 78 1015.8
20260905231041 25 80 1.6 6.4 0.00 0.00 0.00 78 1015.8
20260905230545 25 69 1.6 4.8 0.00 0.00 0.00 78 1015.8
20260905230053 25 51 0.0 8.0 0.00 0.00 0.00 77 1015.9
20260905225541 25 70 1.6 8.0 0.00 0.00 0.00 76 1015.9
20260905225041 25 55 3.2 6.4 0.00 0.00 0.00 77 1016.0
20260905224551 25 0 0.0 6.4 0.00 0.00 0.00 76 1016.0
20260905224042 25 82 1.6 6.4 0.00 0.00 0.00 76 1016.0
20260905223541 25 0 1.6 9.7 0.00 0.00 0.00 76 1016.0
20260905223049 25 82 1.6 11.3 0.00 0.00 0.00 76 1016.1
20260905222541 25 69 3.2 11.3 0.00 0.00 0.00 75 1016.0
20260905222042 25 51 3.2 12.9 0.00 0.00 0.00 75 1016.1
20260905221555 25 65 3.2 16.1 0.00 0.00 0.00 75 1016.0
20260905221045 25 62 6.4 16.1 0.00 0.00 0.00 74 1016.0
20260905220541 25 56 4.8 12.9 0.00 0.00 0.00 75 1016.1
20260905220053 25 77 1.6 12.9 0.00 0.00 0.00 75 1016.1
20260905215539 25 58 3.2 12.9 0.00 0.00 0.00 74 1016.2
20260905215044 25 86 4.8 12.9 0.00 0.00 0.00 74 1016.2
20260905214549 26 39 4.8 14.5 0.00 0.00 0.00 74 1016.2
20260905214041 26 69 3.2 14.5 0.00 0.00 0.00 74 1016.3
20260905213544 26 67 8.0 16.1 0.00 0.00 0.00 73 1016.3
20260905213058 26 86 6.4 16.1 0.00 0.00 0.00 72 1016.4
20260905212542 26 92 4.8 16.1 0.00 0.00 0.00 73 1016.5
20260905212042 26 80 6.4 16.1 0.00 0.00 0.00 73 1016.6
20260905211552 26 66 4.8 16.1 0.00 0.00 0.00 73 1016.5
20260905211042 26 63 6.4 16.1 0.00 0.00 0.00 74 1016.5
20260905210544 26 101 4.8 19.3 0.00 0.00 0.00 74 1016.6
20260905210050 26 12 8.0 19.3 0.00 0.00 0.00 74 1016.5
20260905205544 26 111 4.8 16.1 0.00 0.00 0.00 75 1016.5
20260905205041 26 79 4.8 16.1 0.00 0.00 0.00 76 1016.4
20260905204558 26 67 4.8 17.7 0.00 0.00 0.00 76 1016.4
20260905204045 26 47 8.0 17.7 0.00 0.00 0.00 75 1016.4
20260905203541 26 74 11.3 17.7 0.00 0.00 0.00 75 1016.4
20260905203059 26 16 8.0 17.7 0.00 0.00 0.00 77 1016.5
20260905202542 26 119 8.0 16.1 0.00 0.00 0.00 76 1016.4
20260905202042 26 69 1.6 11.3 0.00 0.00 0.00 76 1016.5
20260905201552 26 111 4.8 12.9 0.00 0.00 0.00 77 1016.6
20260905201041 26 68 6.4 12.9 0.00 0.00 0.00 76 1016.5
20260905200541 26 54 3.2 19.3 0.00 0.00 0.00 77 1016.6
20260905200056 26 105 8.0 19.3 0.00 0.00 0.00 76 1016.6
20260905195541 26 44 3.2 9.7 0.00 0.00 0.00 77 1016.6
20260905195041 26 101 1.6 14.5 0.00 0.00 0.00 76 1016.6
20260905194549 27 58 3.2 14.5 0.00 0.00 0.00 75 1016.6
20260905194043 27 44 4.8 14.5 0.00 0.00 0.00 75 1016.7
20260905193541 27 54 4.8 14.5 0.00 0.00 0.00 76 1016.7
20260905193107 27 65 4.8 14.5 0.00 0.00 0.00 76 1016.7
20260905192541 26 69 4.8 12.9 0.00 0.00 0.00 77 1016.7
20260905192041 26 55 4.8 11.3 0.00 0.00 0.00 77 1016.7
20260905191558 26 36 3.2 9.7 0.00 0.00 0.00 76 1016.9
20260905191042 26 28 1.6 9.7 0.00 0.00 0.00 76 1017.1
20260905190542 26 46 4.8 12.9 0.00 0.00 0.00 76 1017.1
20260905190103 26 61 6.4 12.9 0.00 0.00 0.00 76 1017.1
20260905185541 26 36 1.6 11.3 0.00 0.00 0.00 75 1017.0
20260905185041 27 0 3.2 11.3 0.00 0.00 0.00 74 1016.9
20260905184609 27 70 3.2 14.5 0.00 0.00 0.00 75 1016.8
20260905184042 27 82 6.4 14.5 0.00 0.00 0.00 75 1016.7
20260905183541 27 90 8.0 16.1 0.00 0.00 0.00 74 1016.7
20260905183057 27 68 6.4 16.1 0.00 0.00 0.00 75 1016.7
20260905182542 27 49 6.4 16.1 0.00 0.00 0.00 77 1016.7
20260905182042 26 360 6.4 12.9 0.00 0.00 0.00 79 1016.7
20260905181551 26 0 0.0 11.3 0.00 0.00 0.00 79 1016.7
20260905181042 26 70 4.8 11.3 0.00 0.00 0.00 78 1016.8
20260905180544 26 50 3.2 9.7 0.00 0.00 0.00 78 1016.9
20260905180048 26 36 3.2 9.7 0.00 0.00 0.00 77 1017.0
20260905175542 26 50 3.2 8.0 0.00 0.00 0.00 76 1017.1
20260905175041 26 134 1.6 9.7 0.00 0.00 0.00 76 1017.2
20260905174556 26 0 0.0 9.7 0.00 0.00 0.00 77 1017.2
20260905174041 26 74 1.6 8.0 0.00 0.00 0.00 77 1017.2
20260905173542 26 0 3.2 11.3 0.00 0.00 0.00 79 1017.2
20260905173052 26 352 3.2 14.5 0.00 0.00 0.00 78 1017.2
20260905172542 26 65 4.8 14.5 0.00 0.00 0.00 79 1017.1
20260905172042 26 36 4.8 11.3 0.00 0.00 0.00 78 1017.1
20260905171550 26 71 0.0 8.0 0.00 0.00 0.00 77 1017.2
20260905171041 26 80 3.2 8.0 0.00 0.00 0.00 79 1017.2
20260905170544 26 0 0.0 4.8 0.00 0.00 0.00 80 1017.2
20260905170056 26 0 0.0 6.4 0.00 0.00 0.00 79 1017.2
20260905165544 25 0 0.0 6.4 0.00 0.00 0.00 80 1017.3
20260905165041 25 0 0.0 6.4 0.00 0.00 0.00 81 1017.2
20260905164556 25 0 1.6 9.7 0.00 0.00 0.00 82 1017.3
20260905164041 25 86 3.2 9.7 0.00 0.00 0.00 83 1017.3
20260905163542 25 165 1.6 9.7 0.00 0.00 0.00 85 1017.4
20260905163053 25 54 1.6 6.4 0.00 0.00 0.00 85 1017.3
20260905162545 25 0 0.0 6.4 0.00 0.00 0.00 85 1017.3
20260905162042 24 277 1.6 6.4 0.00 0.00 0.00 85 1017.3
20260905161551 24 5 3.2 6.4 0.00 0.00 0.00 86 1017.2
20260905161042 24 213 0.0 6.4 0.00 0.00 0.00 86 1017.2
20260905160541 23 65 1.6 6.4 0.00 0.00 0.00 86 1017.2
20260905160051 23 57 1.6 6.4 0.00 0.00 0.00 87 1017.2
20260905155544 23 69 1.6 6.4 0.00 0.00 0.00 86 1017.2
20260905155044 23 62 1.6 6.4 0.00 0.00 0.00 87 1017.2
20260905154559 23 87 1.6 6.4 0.00 0.00 0.00 87 1017.1
20260905154044 23 13 0.0 6.4 0.00 0.00 0.00 87 1017.1
20260905153546 23 33 3.2 6.4 0.00 0.00 0.00 87 1017.0
20260905153053 23 0 0.0 3.2 0.00 0.00 0.00 87 1017.0
20260905152544 23 21 0.0 6.4 0.00 0.00 0.00 87 1017.0
20260905152041 23 53 0.0 6.4 0.00 0.00 0.00 87 1017.1
20260905151552 23 67 1.6 8.0 0.00 0.00 0.00 88 1017.1
20260905151042 23 71 1.6 8.0 0.00 0.00 0.00 88 1017.0
20260905150541 23 0 1.6 8.0 0.00 0.00 0.00 88 1017.0
20260905150055 23 76 1.6 8.0 0.00 0.00 0.00 88 1016.8
20260905145542 23 355 1.6 6.4 0.00 0.00 0.00 88 1016.7
20260905145042 23 0 1.6 8.0 0.00 0.00 0.00 88 1016.7
20260905144554 23 328 3.2 8.0 0.00 0.00 0.00 88 1016.7
20260905144049 23 32 3.2 8.0 0.00 0.00 0.00 88 1016.7
20260905143545 23 32 3.2 8.0 0.00 0.00 0.00 88 1016.7
20260905143056 23 0 4.8 8.0 0.00 0.00 0.00 89 1016.7
20260905142543 23 0 3.2 9.7 0.00 0.00 0.00 89 1016.6
20260905142041 23 0 1.6 9.7 0.00 0.00 0.00 89 1016.5
20260905141549 22 59 3.2 9.7 0.00 0.00 0.00 89 1016.5
20260905141046 22 0 1.6 6.4 0.00 0.00 0.00 89 1016.4
20260905140543 22 0 0.0 6.4 0.00 0.00 0.00 90 1016.4
20260905140100 22 0 1.6 6.4 0.00 0.00 0.00 89 1016.4
20260905135543 22 5 1.6 6.4 0.00 0.00 0.00 90 1016.3
20260905135045 22 0 1.6 8.0 0.00 0.00 0.00 90 1016.2
20260905134558 22 0 3.2 11.3 0.00 0.00 0.00 90 1016.1
20260905134045 22 40 3.2 11.3 0.00 0.00 0.00 90 1016.1
20260905133542 22 49 1.6 8.0 0.00 0.00 0.00 90 1015.9
20260905133052 22 11 3.2 8.0 0.00 0.00 0.00 90 1015.8
20260905132546 22 19 3.2 11.3 0.00 0.00 0.00 90 1015.7
20260905132045 22 29 1.6 11.3 0.00 0.00 0.00 90 1015.7
20260905131559 22 63 3.2 11.3 0.00 0.00 0.00 90 1015.6
20260905131043 22 32 3.2 11.3 0.00 0.00 0.00 90 1015.5
20260905130543 22 360 3.2 12.9 0.00 0.00 0.00 90 1015.5
20260905130057 22 321 4.8 12.9 0.00 0.00 0.00 90 1015.6